Regional Weather Roundup
Issued by NWS

Home | Current Version | Previous Version | Graphics & Text | Print | Product List | Glossary On
Versions: 1 2 3 4 5 6 7 8 9 10 11 12 13 14 15 16 17 18 19 20 21 22 23 24 25 26 27 28 29 30 31 32 33 34 35 36 37 38 39 40 41 42 43 44 45 46 47 48 49 50
000
ASUS43 KMKX 211900
RWRWI

WISCONSIN REGIONAL WEATHER ROUNDUP
NATIONAL WEATHER SERVICE MILWAUKEE/SULLIVAN WI
100 PM CST FRI NOV 21 2014

NOTE: "FAIR" INDICATES FEW OR NO CLOUDS BELOW 12,000 FEET WITH NO
SIGNIFICANT WEATHER AND/OR OBSTRUCTIONS TO VISIBILITY.

WIZ001-002-006>008-014>016-023>028-212000-
NORTHWEST WISCONSIN

CITY           SKY/WX    TMP DP  RH WIND       PRES   REMARKS
SUPERIOR ARPT  SUNNY     28  14  56 SW17G25   30.01F WCI  15
ASHLAND        PTSUNNY   26   9  48 S23G30    30.02F WCI  11
HAYWARD          N/A    N/A N/A N/A MISG      30.06F
SIREN          PTSUNNY   28  15  57 S10       30.05F WCI  19
CUMBERLAND     PTSUNNY   19   9  63 S13       30.10F WCI   7
RICE LAKE      PTSUNNY   22  11  63 S13       30.13F WCI   9
CHETEK         MOSUNNY   22   8  57 S12G18    30.15F WCI  10
LADYSMITH      SUNNY     22   7  51 S13       30.16F WCI  10
EAU CLAIRE     NOT AVBL
MENOMONIE      MOSUNNY   23  11  59 SE13      30.18F WCI  11
NEW RICHMOND   CLOUDY    23  13  64 S14G21    30.10F WCI  10
OSCEOLA        MOSUNNY   24  14  65 S14G20    30.12F WCI  12
$$

WIZ003>005-009-010-017-018-212000-
NORTH CENTRAL WISCONSIN

CITY           SKY/WX    TMP DP  RH WIND       PRES   REMARKS
MANITOWISH WTR MOSUNNY   21   2  43 S13       30.08F WCI   8
ARBOR VITAE    SUNNY     20   4  50 S16       30.10F WCI   6
WOODRUFF       SUNNY     20   4  50 S16       30.10F WCI   6
RHINELANDER    SUNNY     18   1  47 S16G23    30.13F WCI   3
EAGLE RIVER    NOT AVBL
LAND O LAKES   PTSUNNY   21   3  45 S13G18    30.09F WCI   9
PHILLIPS       SUNNY     21   2  43 S13G24    30.10F WCI   9
TOMAHAWK       SUNNY     18   2  50 CALM      30.16F
MEDFORD        SUNNY     19   4  53 S12       30.17F WCI   6
MERRILL        SUNNY     20   3  47 SW13      30.19F WCI   7
$$

WIZ029-030-035-036-043>047-212000-
CENTRAL WISCONSIN

CITY           SKY/WX    TMP DP  RH WIND       PRES   REMARKS
WAUSAU         SUNNY     23   4  44 S12       30.19F WCI  12
MOSINEE        SUNNY     23   7  50 S15       30.21F WCI  10
MARSHFIELD     SUNNY     24   2  38 S15       30.19F WCI  11
STEVENS POINT  SUNNY     22   4  46 S13       30.24F WCI  10
WAUPACA        MOSUNNY   29   5  36 S9        30.28F WCI  20
WAUTOMA        NOT AVBL
WISC RAPIDS    SUNNY     24   1  36 S10       30.24F WCI  14
CAMP DOUGLAS   NOT AVBL
$$

WIZ011>013-019>022-031-037>040-048>050-212000-
NORTHEAST WISCONSIN

CITY           SKY/WX    TMP DP  RH WIND       PRES   REMARKS
ANTIGO         SUNNY     17   5  57 S7        30.20S WCI   8
SHAWANO        MOSUNNY   24   6  45 SW3       30.28F
OCONTO         MOSUNNY   24   4  42 SW9       30.29F WCI  14
STURGEON BAY   PTSUNNY   25   5  42 S12       30.28F WCI  14
GREEN BAY      MOSUNNY   24   9  52 S13       30.29F WCI  12
MANITOWOC      NOT AVBL
APPLETON       NOT AVBL
CLINTONVILLE   MOSUNNY   25   7  46 S10       30.27F WCI  15
OSHKOSH        MOSUNNY   26   7  44 S13       30.29F WCI  15
$$

WIZ032>034-041-042-053>061-212000-
SOUTHWEST WISCONSIN

CITY           SKY/WX    TMP DP  RH WIND       PRES   REMARKS
LA CROSSE      MOSUNNY   28   8  43 S15       30.24F WCI  16
SPARTA         SUNNY     27   5  39 S9        30.25F WCI  18
VIROQUA        MOSUNNY   27   7  43 S14       30.22F WCI  15
BOSCOBEL       SUNNY     29   8  41 VRB6      30.29F WCI  23
PRAIRIE DU CHI SUNNY     28   3  34 SE10G17   30.29F WCI  19
PLATTEVILLE    SUNNY     27   9  46 S12       30.31F WCI  17
$$

WIZ056-057-062-063-064-067-068-212000-
SOUTH CENTRAL WISCONSIN

CITY           SKY/WX    TMP DP  RH WIND       PRES   REMARKS
REEDSBURG      SUNNY     27   5  40 S7        30.28F WCI  19
BARABOO/DELLS  SUNNY     28   2  33 S10       30.27F WCI  18
LONE ROCK      NOT AVBL
MINERAL POINT  SUNNY     28   9  43 S13       30.28F WCI  18
MADISON        SUNNY     27   6  41 S13       30.31F WCI  16
MIDDLETON      SUNNY     30   4  33 SW14      30.30F WCI  19
WATERTOWN      SUNNY     28   6  38 S12       30.32F WCI  18
MONROE         SUNNY     28  10  47 S16       30.30F WCI  17
JANESVILLE     SUNNY     32   1  27 S13G18    30.33F WCI  22
$$

WIZ051-052-058>065-066-070>072-212000-
SOUTHEAST WISCONSIN

CITY           SKY/WX    TMP DP  RH WIND       PRES   REMARKS
MILWAUKEE      SUNNY     30   3  31 S13       30.35F WCI  20
WAUKESHA       SUNNY     27   7  43 S9        30.34F WCI  17
MILWAUKEE/TIMM SUNNY     28   1  31 S14       30.35F WCI  17
RACINE         SUNNY     30   8  39 S12       30.37F WCI  20
BURLINGTON     SUNNY     29   6  38 S15       30.35F WCI  17
KENOSHA        SUNNY     31   2  29 S14       30.35F WCI  21
FOND DU LAC    SUNNY     27   6  41 SW16      30.30F WCI  15
SHEBOYGAN      SUNNY     29   5  36 S13       30.32F WCI  19
WEST BEND      SUNNY     28   3  34 S12       30.32F WCI  18
JUNEAU         SUNNY     27   7  43 S15       30.33S WCI  15
$$

LSZ147-162-212000-
LAKE SUPERIOR

STATION/POSITION TIME  TEMP    WIND        PRES    WAVE
                       AIR SEA DIR/SP/G            HT/PER
                 (UTC) (F)     (DEG/KT/KT) (MB)    (FT/S)
DEVILS ISLAND    1800   23     200/  9/ 14 1018.5F
PORT WING        1840   27     190/ 17/ 23 1015.9F
SAXON HARBOR     1800   24     200/ 11     1018.3F
$$

LMZ867-665-643>646-212000-
LAKE MICHIGAN

STATION/POSITION TIME  TEMP    WIND        PRES    WAVE
                       AIR SEA DIR/SP/G            HT/PER
                 (UTC) (F)     (DEG/KT/KT) (MB)    (FT/S)
CHAMBERS ISLAND  1800   21     200/  9/ 17 1025.7F
N MID LAKE BUOY  1750   26 42  240/ 19/ 23 1027.1F   4/ 5
NORTHPORT PIER   1809   24     210/  5/ 16 1025.7F
SISTER BAY       1843          240/ 14/ 18   N/A
ALGOMA LAKESHORE 1813          230/ 16/ 19   N/A
KEWAUNEE LAKESHO 1800   25     200/ 11/ 14 1026.0F
SHEBOYGAN LAKESH 1800   26 33  190/ 18/ 20 1028.9F
PORT WASHINGTON  1800   28     170/ 11/ 13 1028.8F
ATWATER BUOY     1800   26     190/ 10/ 14 1030.6F
MILWAUKEE LAKESH 1800   26     190/ 12/ 15   N/A
S MID LAKE BUOY  1750   27 43  190/ 14/ 17 1031.0F   2/ 5
KENOSHA   LAKESH 1800   26     160/ 14/ 17 1028.8F
$$

TC  - TEMPERATURE IN CELSIUS
VSB - VISIBILITY IN STATUTE MILES
WCI - WIND CHILL INDEX
HX  - HEAT INDEX




USA.gov is the U.S. government's official web portal to all federal, state and local government web resources and services.